Search for airport 
image banner adimage banner adimage banner ad
image banner ad

CA663 - Fitzgerald (Fort Smith) Cej7

Located in , Canada

ICAO - , IATA -

Data provided by Airmate  

General information

Coordinates: N59°51'0" W111°36'0"
Elevation is feet MSL.
 
View others Airports in Northwest Territories

Operational data

Special qualification required
Current time UTC:
Current local time:
Weather at : CYSM - Fort Smith ( 28 km )
METAR: CYSM 070000Z 00000KT 15SM FEW003 FEW250 M31/M34 A2989 RMK ST1CI1 ST TR CI TR SLP158
TAF: TAF CYSM 062340Z 0700/0712 VRB03KT P6SM FEW150 SCT250 RMK NXT FCST BY 070600Z
View NOTAMs / SUP AIP / TFR affecting this airport [VIEW]
Communications frequencies: [VIEW]

Runways:

Airport contact information

Address: Canada

Satellite view of CA663